Location: Lafig�re
(44.4503°N, 4.0357°E)
Time: 06:46:04
(UTC+00:00)

Cosmos 1092 Rocket - Pass Details

Date: 25 January 2021
Orbit: 954 x 994 km, 83.0° (Epoch: 08 March)

Event Time Altitude Azimuth Distance (km) Brightness Sun altitude
Rises 03:40:25 0° 5° (N) 3,644 7.2 -37.2°
Reaches altitude 10° 03:43:54 10° 24° (NNE) 2,696 6.6 -36.6°
Maximum altitude 03:47:51 17° 65° (ENE) 2,204 6.4 -35.9°
Drops below altitude 10° 03:51:48 10° 105° (ESE) 2,697 7.0 -35.2°
Sets 03:55:15 0° 124° (SE) 3,645 7.6 -34.5°
